Stumm im Zillertal
Wetterdaten: aktuell Donnerstag, 20.01.2022 20:51
Datum Zeit Temp. Auen Feuchte A. Luftdruck Regen Wind Richtung Richtung Sonnenschein ET UV Solar Taupunkt Windchill Windben
20.01.2022 20:51 0,1 C 69 % 1029,1 hPa 0,2 l/m 0,0 km/h W-NW 288 0 min 0,025 mm 0,0 UV-I 0 W/m -4,9 C 0,1 C 0,0 km/h
20.01.2022 19:51 0,5 C 67 % 1028,4 hPa 0,0 l/m 0,0 km/h O 101 0 min 0,025 mm 0,0 UV-I 0 W/m -4,9 C 0,5 C 0,0 km/h
20.01.2022 19:03 0,6 C 67 % 1028,5 hPa 0,0 l/m 0,0 km/h O 101 0 min 0,025 mm 0,0 UV-I 0 W/m -4,8 C 0,6 C 0,0 km/h
20.01.2022 18:16 0,6 C 68 % 1028,5 hPa 0,0 l/m 0,0 km/h O 94 0 min 0,000 mm 0,0 UV-I 0 W/m -4,6 C 0,6 C 0,0 km/h
20.01.2022 17:28 0,6 C 68 % 1028,2 hPa 0,0 l/m 5,6 km/h O-SO 110 0 min 0,001 mm 0,0 UV-I 0 W/m -4,6 C 0,6 C 8,0 km/h
20.01.2022 16:40 0,8 C 69 % 1027,9 hPa 0,0 l/m 0,5 km/h O 93 0 min 0,025 mm 0,0 UV-I 11 W/m -4,2 C 0,8 C 1,6 km/h
20.01.2022 15:52 0,9 C 70 % 1027,5 hPa 0,0 l/m 0,0 km/h O-SO 113 0 min 0,026 mm 0,0 UV-I 50 W/m -3,9 C 0,9 C 0,0 km/h
20.01.2022 15:04 0,5 C 70 % 1027,3 hPa 0,2 l/m 0,0 km/h O-SO 116 0 min 0,026 mm 0,0 UV-I 76 W/m -4,3 C 0,5 C 0,0 km/h
20.01.2022 14:14 0,4 C 70 % 1027,1 hPa 0,4 l/m 0,0 km/h SW 224 0 min 0,025 mm 0,0 UV-I 106 W/m -4,4 C 0,4 C 0,0 km/h
20.01.2022 13:24 -0,1 C 69 % 1027,3 hPa 0,6 l/m 0,0 km/h W-NW 300 0 min 0,025 mm 0,0 UV-I 68 W/m -5,1 C -0,1 C 0,0 km/h
20.01.2022 12:35 0,2 C 67 % 1027,7 hPa 0,2 l/m 4,4 km/h NW 306 5 min 0,051 mm 0,0 UV-I 76 W/m -5,2 C 0,2 C 6,4 km/h
20.01.2022 11:45 0,0 C 66 % 1027,7 hPa 0,2 l/m 0,0 km/h SW 219 0 min 0,001 mm 0,7 UV-I 186 W/m -5,6 C 0,0 C 0,0 km/h
20.01.2022 10:55 -0,6 C 67 % 1028,0 hPa 0,0 l/m 0,0 km/h W 265 0 min 0,025 mm 0,5 UV-I 104 W/m -6,0 C -0,6 C 0,0 km/h
20.01.2022 10:08 -0,8 C 67 % 1027,9 hPa 0,0 l/m 0,0 km/h S-SW 203 0 min 0,025 mm 0,0 UV-I 79 W/m -6,1 C -0,8 C 0,0 km/h
20.01.2022 09:18 -1,1 C 67 % 1027,6 hPa 0,0 l/m 0,0 km/h W 263 0 min 0,000 mm 0,0 UV-I 34 W/m -6,4 C -1,1 C 0,0 km/h
20.01.2022 08:27 -1,6 C 67 % 1027,7 hPa 0,0 l/m 0,0 km/h W 269 0 min 0,000 mm 0,0 UV-I 3 W/m -6,9 C -1,6 C 0,0 km/h
20.01.2022 07:39 -1,3 C 68 % 1027,2 hPa 0,0 l/m 0,0 km/h W 268 0 min 0,025 mm 0,0 UV-I 0 W/m -6,4 C -1,3 C 0,0 km/h
20.01.2022 06:50 -2,0 C 68 % 1027,4 hPa 0,0 l/m 0,0 km/h NW 306 0 min 0,026 mm 0,0 UV-I 0 W/m -7,1 C -2,0 C 0,0 km/h
20.01.2022 06:03 -2,2 C 68 % 1027,6 hPa 0,0 l/m 0,0 km/h NW 306 0 min 0,026 mm 0,0 UV-I 0 W/m -7,3 C -2,2 C 0,0 km/h
20.01.2022 05:16 -1,9 C 70 % 1027,5 hPa 0,0 l/m 0,0 km/h W 263 0 min 0,025 mm 0,0 UV-I 0 W/m -6,6 C -1,9 C 0,0 km/h
20.01.2022 04:27 -2,6 C 69 % 1027,8 hPa 0,0 l/m 0,0 km/h O-SO 119 0 min 0,000 mm 0,0 UV-I 0 W/m -7,5 C -2,6 C 0,0 km/h
20.01.2022 03:37 -3,3 C 67 % 1028,5 hPa 0,0 l/m 0,0 km/h O-SO 119 0 min 0,000 mm 0,0 UV-I 0 W/m -8,5 C -3,3 C 0,0 km/h
20.01.2022 02:48 -3,1 C 69 % 1028,7 hPa 0,0 l/m 0,0 km/h O-SO 119 0 min 0,026 mm 0,0 UV-I 0 W/m -8,0 C -3,1 C 0,0 km/h
20.01.2022 02:00 -2,9 C 68 % 1028,5 hPa 0,0 l/m 0,0 km/h O-SO 114 0 min 0,026 mm 0,0 UV-I 0 W/m -8,0 C -2,9 C 0,0 km/h
20.01.2022 01:13 -3,1 C 67 % 1028,3 hPa 0,0 l/m 0,0 km/h O-SO 117 0 min 0,025 mm 0,0 UV-I 0 W/m -8,3 C -3,1 C 0,0 km/h
20.01.2022 00:25 -4,0 C 68 % 1028,6 hPa 0,0 l/m 0,0 km/h S-SO 153 0 min 0,000 mm 0,0 UV-I 0 W/m -9,0 C -4,0 C 0,0 km/h
19.01.2022 23:36 -3,0 C 69 % 1028,0 hPa 0,0 l/m 0,0 km/h SO 124 0 min 0,000 mm 0,0 UV-I 0 W/m -7,9 C -3,0 C 0,0 km/h
19.01.2022 22:47 -2,7 C 70 % 1027,6 hPa 0,0 l/m 0,0 km/h SO 124 0 min 0,000 mm 0,0 UV-I 0 W/m -7,4 C -2,7 C 0,0 km/h
19.01.2022 21:58 -2,5 C 72 % 1027,4 hPa 0,0 l/m 0,0 km/h SO 124 0 min 0,000 mm 0,0 UV-I 0 W/m -6,8 C -2,5 C 0,0 km/h
19.01.2022 21:11 -2,2 C 72 % 1027,2 hPa 0,0 l/m 0,0 km/h SO 124 0 min 0,000 mm 0,0 UV-I 0 W/m -6,5 C -2,2 C 0,0 km/h
19.01.2022 21:00 -2,0 C 72 % 1027,2 hPa 0,0 l/m 0,0 km/h SO 124 0 min 0,000 mm 0,0 UV-I 0 W/m -6,4 C -2,0 C 0,0 km/h
_ Min-Zeit 00:22 11:43 14:23 - 21:00 - - - - - - 00:22 00:22 21:00
Minimum _ -4,1 C 66 % 1026,9 hPa - 0,0 km/h - - - - - - -9,1 C -4,1 C 0,0 km/h
_ Max-Zeit 16:12 21:48 20:28 11:45 17:11 - - 11:56 12:00 11:58 11:58 15:31 16:12 17:45
Maximum _ 1,0 C 74 % 1029,3 hPa 0,2 l/m 8,1 km/h
O
- - 1 min 0,051 mm 0,8 UV-I 245 W/m -3,9 C 1,0 C 11,3 km/h
S
Durchschnitt _ -1,2 C 69 % 1027,8 hPa #1,2 l/m 0,4 km/h O - #5 min. #0,406 mm 0,5 UV-I 74 W/m -6,3 C -1,2 C 0,8 km/h